This is the latest recevied weather packets stored in our database for station/object W0CHP-13. If no packets are shown the sender has not sent any weather packets the latest 10 day(s).
| Time | Temp. | Humidity | Pressure | Rain* | Wind** | Luminosity | Snow |
|---|---|---|---|---|---|---|---|
| 1788332417 | 21.67° C | 93% | 1010.6 hPa | 0 mm | - | 0 W/m² | - |
| 1788331815 | 21.67° C | 93% | 1010.6 hPa | 0 mm | - | 0 W/m² | - |
| 1788331216 | 21.67° C | 94% | 1010.6 hPa | 0 mm | - | 0 W/m² | - |
| 1788330615 | 21.67° C | 92% | 1011 hPa | 0 mm | - | 0 W/m² | - |
| 1788330018 | 21.67° C | 95% | 1010.6 hPa | 0 mm | - | 0 W/m² | - |
| 1788329416 | 21.67° C | 93% | 1011 hPa | 0 mm | - | 0 W/m² | - |
| 1788328815 | 21.67° C | 92% | 1010.6 hPa | 0 mm | - | 0 W/m² | - |
| 1788328217 | 21.67° C | 92% | 1010.6 hPa | 0 mm | - | 0 W/m² | - |
| 1788327616 | 21.67° C | 92% | 1011 hPa | 0 mm | - | 0 W/m² | - |
| 1788327018 | 21.67° C | 92% | 1011.6 hPa | 0 mm | - | 0 W/m² | - |
| 1788326417 | 21.67° C | 92% | 1011.7 hPa | 0 mm | - | 0 W/m² | - |
| 1788325816 | 22.22° C | 93% | 1012.3 hPa | 0 mm | - | 0 W/m² | - |
| 1788325218 | 22.22° C | 90% | 1012.3 hPa | 0 mm | - | 0 W/m² | - |
| 1788324616 | 22.22° C | 89% | 1011.6 hPa | 0 mm | - | 0 W/m² | - |
| 1788324018 | 22.78° C | 83% | 1011.6 hPa | 0 mm | - | 0 W/m² | - |
| 1788323416 | 23.33° C | 78% | 1011.6 hPa | 0 mm | - | 0 W/m² | - |
| 1788322818 | 23.89° C | 77% | 1012 hPa | 0 mm | - | 0 W/m² | - |
| 1788322216 | 23.33° C | 80% | 1012 hPa | 0 mm | - | 0 W/m² | - |
| 1788321618 | 23.33° C | 81% | 1011.6 hPa | 0 mm | - | 0 W/m² | - |
| 1788321017 | 22.78° C | 80% | 1011.6 hPa | 0 mm | - | 0 W/m² | - |
| 1788320417 | 23.33° C | 80% | 1011.6 hPa | 0 mm | - | 0 W/m² | - |
| 1788319818 | 23.33° C | 79% | 1012 hPa | 0 mm | - | 0 W/m² | - |
| 1788319216 | 23.33° C | 78% | 1012 hPa | 0 mm | - | 0 W/m² | - |
| 1788318617 | 23.33° C | 78% | 1011.9 hPa | 0 mm | - | 0 W/m² | - |
| 1788318015 | 23.89° C | 79% | 1011.9 hPa | 0 mm | - | 0 W/m² | - |
* Rain latest 24 hours (hover to see other rain measurements)
** Current wind speed in m/s (hover to see current wind gust speed)